Location: Nelson
(41.2830°S, 173.2830°E)
Time: 18:57:31
(UTC+12:00)

Cosmos 1825 Rocket - Pass Details

Date: 14 May 2021
Orbit: 604 x 630 km, 82.5° (Epoch: 19 June)

Event Time Altitude Azimuth Distance (km) Brightness Sun altitude
Rises 17:46:43 0° 345° (NNW) 2,899 7.5 -5.7°
Reaches altitude 10° 17:48:58 10° 341° (NNW) 1,998 6.8 -6.1°
Maximum altitude 17:53:21 60° 260° (W) 723 4.3 -6.8°
Drops below altitude 10° 17:57:45 10° 180° (S) 2,010 6.0 -7.6°
Sets 18:00:02 0° 176° (S) 2,920 6.8 -8.0°
